User: anonymous   Login
Location: Darlington Observatory
(36.4817°N, 105.8156°W)
Time: 13:37:52
(UTC-07:00)
Language:

MOS 1 - Orbit

View from above orbital plane
View from above orbital plane
View from above satellite
View from above satellite

Ground track
Ground track

The orbit data is extracted from the following two-line orbital elements,

1 17527U 87018A   16037.49316458 -.00000135  00000-0 -57370-4 0  9990
2 17527  99.2664  37.1904 0007841 211.5355 259.1453 14.02439577479838
Epoch (UTC): 06 February 2016 11:50:09
Eccentricity: 0.0007841
inclination: 99.2664°
perigee height: 879 km
apogee height: 891 km
right ascension of ascending node: 37.1904°
argument of perigee: 211.5355°
revolutions per day: 14.02439577
mean anomaly at epoch: 259.1453°
orbit number at epoch: 47983

The dashed part of the orbit path shows where the satellite is in the earth's shadow,  

DLR